STARLINK-36129 (66874 NORAD) Tracking and Keplerian Element Data

This shows tracking and keplerian element data for the satellite.

Feedback or suggestion? Click here.




ElementValue
Catalog66874
NameSTARLINK-36129
Epoch Orbit263
Epoch Day354.25003472
Epoch Year2025
RAAN76.2703
Inclination43.001
Eccentricity9.67E-05
Argument of Perigee265.8063
Mean Anonmoly268.3272
Mean Motion15.75419318
Decay Rate-0.0172052
L11 66874U 25281AC 25354.25003472 -.01720520 00000+0 -12486-1 0 9991
L22 66874 43.0010 76.2703 0000967 265.8063 268.3272 15.75419318 2633



Live tracking and technical data element details for STARLINK-36129 (NORAD 66874). STARLINK-36129 can be tracked NOW for your location showing map with azimuth and elevation plus other details from your city location.







IsCatalogInMostPopularTable: catalog: 66874, numindb: 25
Update: records affected: 1



GetName: 66874 STARLINK-36129

Hit Count: updated at: Wed, 15 Apr 2026 01:48:38 GMT